Regional Weather Roundup
Issued by NWS Raleigh/Durham, NC

Home | Current Version | Previous Version | Text Only | Print | Product List | Glossary On
Versions: 1 2 3 4 5 6 7 8 9 10 11 12 13 14 15 16 17 18 19 20 21 22 23 24 25 26 27 28 29 30 31 32 33 34 35 36 37 38 39 40 41 42 43 44 45 46 47 48 49 50
000
ASUS42 KRAH 311010
RWRRAH
NORTH CAROLINA WEATHER ROUNDUP
NATIONAL WEATHER SERVICE RALEIGH NC
600 AM EDT SUN AUG 31 2014

NOTE: "FAIR" INDICATES FEW OR NO CLOUDS BELOW 12,000 FEET WITH NO
SIGNIFICANT WEATHER AND/OR OBSTRUCTIONS TO VISIBILITY.

NCZ001-053-055-056-065-067-311100-
WESTERN NORTH CAROLINA

CITY           SKY/WX    TMP DP  RH WIND       PRES   REMARKS
ASHEVILLE      NOT AVBL
JEFFERSON      NOT AVBL
HICKORY        NOT AVBL
RUTHERFORDTON  NOT AVBL
MOUNT AIRY     NOT AVBL
BOONE          NOT AVBL
$$

NCZ021-022-025-041-071-084-088-311100-
CENTRAL NORTH CAROLINA

CITY           SKY/WX    TMP DP  RH WIND       PRES   REMARKS
CHARLOTTE      NOT AVBL
GREENSBORO     MOCLDY    72  71  97 SW6       30.18R
WINSTON-SALEM  CLOUDY    74  68  81 S3        30.19R
RALEIGH-DURHAM CLOUDY    75  71  87 S3        30.17S
FORT BRAGG     PTCLDY    73  72  95 SE1       30.16S
FAYETTEVILLE   PTCLDY    73  71  93 CALM      30.16S
BURLINGTON     CLOUDY    73  70  90 CALM      30.18R
LAURINBURG     FOG       70  69  97 CALM      30.17S VSB 1/2
$$

NCZ011-015-027-028-043-044-047-080-103-311100-
NORTHEASTERN NORTH CAROLINA

CITY           SKY/WX    TMP DP  RH WIND       PRES   REMARKS
ROCKY MT-WILSO MOCLDY    70  69  97 CALM      30.17R FOG
GREENVILLE     PTCLDY    72  72 100 CALM      30.18R
WASHINGTON     PTCLDY    70  70  98 CALM      30.17S
ELIZABETH CITY NOT AVBL
MANTEO         PTCLDY    73  72  96 CALM      30.18R
CAPE HATTERAS  PTCLDY    78  71  79 SW6       30.18R
$$

NCZ078-087-090-091-093-098-101-311100-
SOUTHEASTERN NORTH CAROLINA

CITY           SKY/WX    TMP DP  RH WIND       PRES   REMARKS
LUMBERTON      MOCLDY    71  70  96 CALM      30.16R
GOLDSBORO      PTCLDY    70  69  99 CALM      30.16R
KINSTON        PTCLDY    69  68  98 CALM      30.18R FOG
KENANSVILLE    PTCLDY    67  66  96 CALM      30.18R
NEW BERN       PTCLDY    72  68  87 CALM      30.18R
CHERRY POINT   CLEAR     71  69  93 CALM      30.18R
BEAUFORT       CLEAR     77  72  84 SE3       30.17R
JACKSONVILLE   PTCLDY    70  69  97 CALM      30.16S
WILMINGTON     PTCLDY    71  69  93 CALM      30.16R
$$



USA.gov is the U.S. government's official web portal to all federal, state and local government web resources and services.